Regional Weather Roundup
Issued by NWS Huntsville, AL

Home | Current Version | Previous Version | Text Only | Print | Product List | Glossary On
Versions: 1 2 3 4 5 6 7 8 9 10 11 12 13 14 15 16 17 18 19 20 21 22 23 24 25 26 27
000
ASUS44 KHUN 220610
RWRHUN

WEATHER ROUNDUP FOR THE TENNESSEE VALLEY
NATIONAL WEATHER SERVICE HUNTSVILLE AL
1200 AM CST SUN JAN 22 2017

ALZ001>004-220700-
NORTHWEST ALABAMA

CITY           SKY/WX    TMP DP  RH WIND       PRES   REMARKS
COURTLAND HCN    N/A     55 N/A N/A E6          N/A
RUSSELLVILLE     N/A     57 N/A N/A MISG        N/A
SHOALS AIRPORT CLOUDY    57  52  83 E8        29.50F
6HR MIN TEMP:  55; 6HR MAX TEMP:  61;

SHOALS TVA RES   N/A     57 N/A N/A MISG        N/A
$$

ALZ005>007-016-220700-
NORTH CENTRAL ALABAMA

CITY           SKY/WX    TMP DP  RH WIND       PRES   REMARKS
CULLMAN AG STN   N/A     55 N/A N/A SE5         N/A
DECATUR AP     CLOUDY    56  55  97 E7        29.52F
6HR MIN TEMP:  55; 6HR MAX TEMP:  61;

HUNTSVILLE AP  CLOUDY    57  55  93 E6        29.52F
6HR MIN TEMP:  54; 6HR MAX TEMP:  61;

MERIDIANVILLE  CLOUDY    52  50  93 NE3       29.53F
REDSTONE ARSN  CLOUDY    57  55  91 SE5       29.51F
VINEMONT AP    FAIR      56  54  92 E6        29.51F
$$

ALZ008>010-220700-
NORTHEAST ALABAMA

CITY           SKY/WX    TMP DP  RH WIND       PRES   REMARKS
ALBERTVILLE    CLOUDY    55  55 100 E10G18    29.51F
FORT PAYNE     PTCLDY    52  50  93 CALM      29.58F
SCOTTSBORO AP  PTCLDY    50  50 100 CALM      29.56F
SCOTTSBORO HCN   N/A     50 N/A N/A MISG        N/A
VALLEY HEAD      N/A     57 N/A N/A MISG        N/A
$$

TNZ076-096-097-220700-
SOUTHEASTERN MIDDLE TENNESSEE

CITY           SKY/WX    TMP DP  RH WIND       PRES   REMARKS
TULLAHOMA      CLEAR     52  50  93 E3        29.57F
WINCHESTER     CLEAR     55  52  88 SE7       29.58F
$$

...SURROUNDING SITES...

CITY           SKY/WX    TMP DP  RH WIND       PRES   REMARKS
ATLANTA        LGT RAIN  58  56  93 SE10      29.65S
ANNISTON       CLOUDY    59  57  93 NE8       29.53F
BIRMINGHAM     TSTM      60  58  92 E10       29.50F FOG
CHATTANOOGA    MOCLDY    55  52  89 N5        29.60F
CORINTH        FAIR      57  54  88 E6        29.46F
DALTON         CLOUDY    54  54 100 CALM      29.61F
GADSDEN        PTCLDY    56  55  97 NE12      29.52F
GOLDEN TRNGL   CLOUDY    61  55  82 S9        29.45S
HALEYVILLE     FAIR      56  54  93 E6        29.49F
JACKSON TN     PTCLDY    58  53  84 CALM      29.47F
MEMPHIS        CLOUDY    62  55  77 E6        29.44F
NASHVILLE      MOCLDY    55  50  83 SE10      29.54F
OXFORD MS      MOCLDY    59  54  82 S14G22    29.51R THUNDER
ROME           CLOUDY    55  53  93 CALM      29.60F
SAVANNAH       CLEAR     57  54  88 CALM      29.46F
TUPELO         CLOUDY    59  55  87 SE12      29.48R THUNDER FOG
TUSCALOOSA     TSTM      61  60  97 SW36G53   29.52R FOG
$$

...GULF COAST WEATHER...

CITY           SKY/WX    TMP DP  RH WIND       PRES   REMARKS
GULFPORT       CLOUDY    70  69  97 SW8       29.53S FOG
PASCAGOULA     CLOUDY    70  67  90 SW10G18   29.54S FOG
MOBILE         CLOUDY    72  69  90 SW16G26   29.55R
GULF SHORES    CLOUDY    70  70 100 S10G25    29.57F FOG
PENSACOLA      CLOUDY    72  70  93 S15       29.57S FOG
DESTIN         CLOUDY    76  73  91 S15G29    29.58
PANAMA CITY    HVY RAIN  72  70  94 SW13      29.61F FOG
APPALACHICOLA  CLOUDY    73  72  96 S15       29.65F
$$





USA.gov is the U.S. government's official web portal to all federal, state and local government web resources and services.